Location: Krakow
(50.0830°N, 19.9170°E)
Time: 07:42:26
(UTC+02:00)

A-11 Canister half - Pass Details

Date: 24 March 2026
Orbit: 1523 x 1684 km, 47.3° (Epoch: 18 April)

Event Time Altitude Azimuth Distance (km) Brightness Sun altitude
Rises 05:44:47 0° 204° (SSW) 4,921 11.4 0.8°
Reaches altitude 10° 05:48:25 10° 195° (SSW) 3,926 11.0 1.4°
Maximum altitude 05:56:49 32° 137° (SE) 2,578 10.8 2.7°
Drops below altitude 10° 06:05:03 10° 80° (E) 3,852 13.2 4.0°
Sets 06:08:33 0° 71° (ENE) 4,817 13.1 4.6°
